DNO229 EDDW-LGIR

Flight info

Callsign DNO229
Flight time 2h 57m
Altitude 33000
Route NIE2M NIE Z88 UPDAT/N0440F350 T236 ADMOS T959 KENIG/N0445F370 Z94 GALMA T703 DEXIT DCT NURMI DCT TISKO DCT DOBOT DCT MOJ DCT ALELU DCT MAVAR DCT BITLA UN132 ROPOX UM749 EPALO
Aircraft A320/M-SDE3FGHIRWY/LB1

Departure

Time 2026-04-27 15:29
Airport Bremen Airport (EDDW)

Arrival

Time 2026-04-27 18:27
Airport Heraklion International Nikos Kazantzakis Airport (LGIR)
Time Latitude Longitude Altitude Speed Heading
2026-04-27 15:24 53.05257 8.77995 20 ft 0 kts 317°
2026-04-27 15:25 53.05256 8.77996 20 ft 2 kts 317°
2026-04-27 15:25 53.05244 8.78015 22 ft 2 kts 317°
2026-04-27 15:25 53.05231 8.78034 20 ft 3 kts 317°
2026-04-27 15:25 53.05218 8.78054 20 ft 2 kts 299°
2026-04-27 15:26 53.05215 8.78080 22 ft 1 kts 230°
2026-04-27 15:26 53.05215 8.78081 22 ft 0 kts 226°
2026-04-27 15:27 53.05170 8.78005 20 ft 16 kts 231°
2026-04-27 15:27 53.05105 8.77869 20 ft 14 kts 227°
2026-04-27 15:27 53.05042 8.77757 21 ft 13 kts 227°
2026-04-27 15:27 53.04987 8.77659 21 ft 11 kts 226°
2026-04-27 15:28 53.04940 8.77577 21 ft 9 kts 226°
2026-04-27 15:28 53.04885 8.77511 20 ft 11 kts 210°
2026-04-27 15:28 53.04776 8.77455 21 ft 21 kts 188°
2026-04-27 15:28 53.04663 8.77563 19 ft 22 kts 91°
2026-04-27 15:29 53.04694 8.77943 20 ft 62 kts 81°
2026-04-27 15:29 53.04714 8.79109 21 ft 137 kts 86°
2026-04-27 15:29 53.04792 8.80878 465 ft 159 kts 83°
2026-04-27 15:29 53.04851 8.82716 1411 ft 157 kts 84°
2026-04-27 15:30 53.04905 8.84533 2182 ft 160 kts 85°
2026-04-27 15:30 53.04747 8.86471 2486 ft 184 kts 116°
2026-04-27 15:30 53.03994 8.88340 2745 ft 206 kts 126°
2026-04-27 15:30 53.02882 8.90004 3019 ft 232 kts 144°
2026-04-27 15:31 53.01454 8.91606 3465 ft 255 kts 143°
2026-04-27 15:31 52.99995 8.93301 4155 ft 264 kts 143°
2026-04-27 15:31 52.98480 8.95086 4965 ft 270 kts 143°
2026-04-27 15:31 52.96906 8.96951 5731 ft 278 kts 143°
2026-04-27 15:32 52.95322 8.98829 6549 ft 282 kts 144°
2026-04-27 15:32 52.93715 9.00734 7375 ft 285 kts 145°
2026-04-27 15:32 52.92121 9.02621 8195 ft 287 kts 146°
2026-04-27 15:32 52.90483 9.04554 8996 ft 291 kts 146°
2026-04-27 15:33 52.88827 9.06507 9828 ft 293 kts 147°
2026-04-27 15:33 52.87152 9.08477 10552 ft 299 kts 147°
2026-04-27 15:33 52.85389 9.10542 10799 ft 322 kts 147°
2026-04-27 15:33 52.83492 9.12764 10988 ft 345 kts 146°
2026-04-27 15:34 52.81502 9.15097 11475 ft 355 kts 146°
2026-04-27 15:34 52.79475 9.17477 12181 ft 360 kts 146°
2026-04-27 15:34 52.77421 9.19887 12896 ft 364 kts 146°
2026-04-27 15:34 52.75346 9.22321 13582 ft 368 kts 146°
2026-04-27 15:35 52.73251 9.24776 14230 ft 372 kts 146°
2026-04-27 15:35 52.71131 9.27257 14823 ft 375 kts 146°
2026-04-27 15:35 52.68992 9.29754 15412 ft 378 kts 146°
2026-04-27 15:35 52.66831 9.32267 16009 ft 382 kts 146°
2026-04-27 15:36 52.64649 9.34800 16590 ft 385 kts 146°
2026-04-27 15:36 52.62451 9.37363 17143 ft 389 kts 145°
2026-04-27 15:36 52.60289 9.40083 17674 ft 393 kts 142°
2026-04-27 15:36 52.58170 9.42965 18224 ft 397 kts 140°
2026-04-27 15:37 52.56070 9.45941 18734 ft 401 kts 140°
2026-04-27 15:37 52.53957 9.48963 19200 ft 404 kts 140°
2026-04-27 15:37 52.51824 9.51989 19659 ft 407 kts 140°
2026-04-27 15:37 52.49660 9.55018 20111 ft 410 kts 141°
2026-04-27 15:38 52.48182 9.57062 20432 ft 413 kts 141°
2026-04-27 15:38 52.45248 9.61073 21022 ft 417 kts 142°
2026-04-27 15:38 52.43734 9.63127 21333 ft 419 kts 142°
2026-04-27 15:38 52.41483 9.66176 21764 ft 422 kts 142°
2026-04-27 15:39 52.39209 9.69254 22189 ft 425 kts 142°
2026-04-27 15:39 52.36923 9.72352 22618 ft 428 kts 142°
2026-04-27 15:39 52.34617 9.75480 22996 ft 432 kts 143°
2026-04-27 15:39 52.32296 9.78630 23398 ft 435 kts 143°
2026-04-27 15:40 52.29988 9.81759 23803 ft 438 kts 143°
2026-04-27 15:40 52.27603 9.84993 24175 ft 441 kts 143°
2026-04-27 15:40 52.25255 9.88133 24523 ft 442 kts 146°
2026-04-27 15:40 52.22705 9.90930 24854 ft 443 kts 150°
2026-04-27 15:41 52.20071 9.93687 25185 ft 445 kts 150°
2026-04-27 15:41 52.17456 9.96419 25514 ft 448 kts 150°
2026-04-27 15:41 52.14863 9.99128 25829 ft 450 kts 151°
2026-04-27 15:41 52.12223 10.01883 26159 ft 452 kts 151°
2026-04-27 15:42 52.09531 10.04691 26478 ft 454 kts 151°
2026-04-27 15:42 52.06862 10.07475 26777 ft 458 kts 151°
2026-04-27 15:42 52.04175 10.10276 27091 ft 460 kts 151°
2026-04-27 15:42 52.01471 10.13090 27403 ft 462 kts 152°
2026-04-27 15:43 51.98755 10.15912 27723 ft 465 kts 152°
2026-04-27 15:43 51.96068 10.18852 28017 ft 469 kts 146°
2026-04-27 15:43 51.93649 10.22349 28300 ft 476 kts 136°
2026-04-27 15:43 51.91511 10.26586 28593 ft 482 kts 127°
2026-04-27 15:44 51.89824 10.31216 28849 ft 487 kts 120°
2026-04-27 15:44 51.88237 10.36075 29098 ft 489 kts 120°
2026-04-27 15:44 51.86638 10.40940 29368 ft 491 kts 120°
2026-04-27 15:44 51.85026 10.45822 29621 ft 493 kts 120°
2026-04-27 15:45 51.83401 10.50725 29878 ft 495 kts 120°
2026-04-27 15:45 51.81766 10.55640 30142 ft 497 kts 120°
2026-04-27 15:45 51.80127 10.60547 30458 ft 496 kts 121°
2026-04-27 15:45 51.78484 10.65455 30756 ft 496 kts 121°
2026-04-27 15:46 51.76844 10.70352 31049 ft 496 kts 121°
2026-04-27 15:46 51.75202 10.75250 31343 ft 496 kts 121°
2026-04-27 15:46 51.73560 10.80138 31629 ft 496 kts 121°
2026-04-27 15:46 51.72027 10.85128 31924 ft 497 kts 114°
2026-04-27 15:47 51.70773 10.90330 32218 ft 498 kts 112°
2026-04-27 15:47 51.69525 10.95531 32512 ft 497 kts 113°
2026-04-27 15:47 51.68270 11.00725 32810 ft 497 kts 113°
2026-04-27 15:47 51.67009 11.05908 33102 ft 497 kts 113°
2026-04-27 15:48 51.65741 11.11079 33393 ft 497 kts 113°
2026-04-27 15:48 51.64408 11.16223 33677 ft 495 kts 118°
2026-04-27 15:48 51.62694 11.20991 33947 ft 492 kts 128°
2026-04-27 15:49 51.58099 11.28977 34464 ft 482 kts 146°
2026-04-27 15:49 51.55347 11.31998 34716 ft 476 kts 155°
2026-04-27 15:49 51.52436 11.34479 34955 ft 474 kts 158°
2026-04-27 15:49 51.49511 11.36933 35191 ft 474 kts 157°
2026-04-27 15:50 51.46591 11.39390 35407 ft 474 kts 157°
2026-04-27 15:50 51.43674 11.41850 35624 ft 474 kts 157°
2026-04-27 15:50 51.40795 11.44276 35844 ft 473 kts 157°
2026-04-27 15:50 51.37880 11.46722 36072 ft 473 kts 157°
2026-04-27 15:51 51.34960 11.49162 36209 ft 474 kts 157°
2026-04-27 15:51 51.29108 11.54025 36241 ft 474 kts 157°
2026-04-27 15:52 51.23250 11.58869 36210 ft 474 kts 157°
2026-04-27 15:52 51.17391 11.63709 36235 ft 474 kts 157°
2026-04-27 15:53 51.11300 11.67372 36234 ft 463 kts 174°
2026-04-27 15:53 51.04966 11.68281 36235 ft 455 kts 184°
2026-04-27 15:54 50.98627 11.68622 36211 ft 456 kts 184°
2026-04-27 15:54 50.92285 11.68985 36217 ft 456 kts 183°
2026-04-27 15:55 50.85944 11.69340 36226 ft 456 kts 184°
2026-04-27 15:55 50.79606 11.69685 36224 ft 456 kts 184°
2026-04-27 15:56 50.73264 11.70036 36200 ft 457 kts 182°
2026-04-27 15:56 50.66982 11.72092 36210 ft 467 kts 166°
2026-04-27 15:57 50.60815 11.75316 36210 ft 467 kts 166°
2026-04-27 15:57 50.54635 11.78518 36208 ft 468 kts 166°
2026-04-27 15:58 50.48447 11.81700 36214 ft 468 kts 167°
2026-04-27 15:58 50.42374 11.85502 36216 ft 471 kts 161°
2026-04-27 15:59 50.36357 11.89586 36218 ft 471 kts 161°
2026-04-27 15:59 50.30326 11.93653 36215 ft 472 kts 161°
2026-04-27 16:00 50.24296 11.97701 36202 ft 472 kts 161°
2026-04-27 16:00 50.18265 12.01761 36208 ft 472 kts 161°
2026-04-27 16:01 50.12234 12.05809 36182 ft 472 kts 161°
2026-04-27 16:01 50.06192 12.09841 36192 ft 473 kts 161°
2026-04-27 16:02 50.00150 12.13879 36162 ft 473 kts 161°
2026-04-27 16:02 49.94102 12.17915 36163 ft 473 kts 161°
2026-04-27 16:03 49.88051 12.21924 36180 ft 473 kts 161°
2026-04-27 16:03 49.81994 12.25911 36182 ft 473 kts 161°
2026-04-27 16:04 49.75937 12.29897 36164 ft 473 kts 161°
2026-04-27 16:04 49.70138 12.34787 36163 ft 480 kts 146°
2026-04-27 16:05 49.64851 12.41008 36158 ft 481 kts 146°
2026-04-27 16:05 49.59475 12.47277 36161 ft 482 kts 146°
2026-04-27 16:06 49.54119 12.53488 36165 ft 482 kts 146°
2026-04-27 16:06 49.48762 12.59680 36152 ft 482 kts 146°
2026-04-27 16:07 49.43463 12.65889 36159 ft 483 kts 141°
2026-04-27 16:07 49.38556 12.72995 36161 ft 485 kts 138°
2026-04-27 16:08 49.33973 12.80705 36160 ft 487 kts 131°
2026-04-27 16:08 49.29670 12.88638 36161 ft 487 kts 131°
2026-04-27 16:09 49.25325 12.96603 36164 ft 488 kts 131°
2026-04-27 16:09 49.18513 13.08230 36151 ft 486 kts 137°
2026-04-27 16:10 49.08860 13.22702 36161 ft 486 kts 137°
2026-04-27 16:11 49.01604 13.33529 36177 ft 487 kts 137°
2026-04-27 16:12 48.94335 13.44316 36152 ft 486 kts 137°
2026-04-27 16:13 48.87057 13.55073 36151 ft 486 kts 137°
2026-04-27 16:13 48.79768 13.65798 36165 ft 487 kts 137°
2026-04-27 16:14 48.69414 13.78811 36131 ft 485 kts 144°
2026-04-27 16:15 48.58654 13.91164 36143 ft 486 kts 145°
2026-04-27 16:16 48.47867 14.03448 36161 ft 486 kts 144°
2026-04-27 16:17 48.37067 14.15698 36142 ft 486 kts 144°
2026-04-27 16:18 48.26252 14.27883 36156 ft 486 kts 144°
2026-04-27 16:19 48.20836 14.33961 36151 ft 486 kts 144°
2026-04-27 16:20 48.10009 14.46096 36148 ft 486 kts 144°
2026-04-27 16:21 48.02786 14.54123 36167 ft 486 kts 144°
2026-04-27 16:22 47.91941 14.66151 36166 ft 485 kts 144°
2026-04-27 16:22 47.83803 14.75130 36154 ft 485 kts 144°
2026-04-27 16:23 47.75669 14.84077 36151 ft 485 kts 144°
2026-04-27 16:24 47.70239 14.90016 36163 ft 485 kts 144°
2026-04-27 16:25 47.59404 15.01830 36156 ft 482 kts 144°
2026-04-27 16:26 47.48634 15.13579 36148 ft 480 kts 144°
2026-04-27 16:27 47.37853 15.25250 36130 ft 480 kts 144°
2026-04-27 16:28 47.24356 15.39789 36139 ft 480 kts 144°
2026-04-27 16:29 47.10894 15.54184 36138 ft 479 kts 144°
2026-04-27 16:30 47.00096 15.65650 36137 ft 479 kts 144°
2026-04-27 16:31 46.86609 15.79939 36134 ft 478 kts 144°
2026-04-27 16:32 46.78507 15.88437 36130 ft 478 kts 144°
2026-04-27 16:33 46.70415 15.96933 36131 ft 478 kts 144°
2026-04-27 16:33 46.65012 16.02578 36118 ft 478 kts 144°
2026-04-27 16:34 46.59608 16.08208 36216 ft 478 kts 144°
2026-04-27 16:34 46.56908 16.11015 36462 ft 477 kts 144°
2026-04-27 16:34 46.54206 16.13820 36690 ft 477 kts 145°
2026-04-27 16:35 46.51508 16.16615 36907 ft 476 kts 145°
2026-04-27 16:35 46.48808 16.19414 37089 ft 477 kts 145°
2026-04-27 16:36 46.40718 16.27775 37139 ft 476 kts 145°
2026-04-27 16:36 46.35326 16.33345 37136 ft 476 kts 145°
2026-04-27 16:37 46.29929 16.38900 37137 ft 476 kts 145°
2026-04-27 16:37 46.24526 16.44432 37136 ft 476 kts 145°
2026-04-27 16:38 46.19116 16.49949 37140 ft 476 kts 145°
2026-04-27 16:38 46.13705 16.55452 37137 ft 476 kts 145°
2026-04-27 16:39 46.08297 16.60961 37140 ft 476 kts 145°
2026-04-27 16:39 46.02887 16.66461 37140 ft 476 kts 145°
2026-04-27 16:40 45.97468 16.71949 37141 ft 476 kts 145°
2026-04-27 16:40 45.92050 16.77437 37139 ft 476 kts 145°
2026-04-27 16:41 45.86626 16.82913 37152 ft 476 kts 145°
2026-04-27 16:41 45.81196 16.88364 37148 ft 476 kts 145°
2026-04-27 16:42 45.75794 16.93763 37146 ft 476 kts 145°
2026-04-27 16:42 45.70361 16.99191 37145 ft 476 kts 145°
2026-04-27 16:43 45.64936 17.04616 37134 ft 476 kts 145°
2026-04-27 16:43 45.59516 17.10032 37144 ft 475 kts 145°
2026-04-27 16:44 45.54084 17.15428 37137 ft 475 kts 146°
2026-04-27 16:44 45.48647 17.20796 37138 ft 475 kts 146°
2026-04-27 16:45 45.43215 17.26173 37144 ft 476 kts 146°
2026-04-27 16:45 45.37778 17.31547 37150 ft 476 kts 146°
2026-04-27 16:46 45.32339 17.36900 37147 ft 476 kts 146°
2026-04-27 16:46 45.26891 17.42243 37146 ft 476 kts 146°
2026-04-27 16:47 45.21445 17.47578 37130 ft 476 kts 146°
2026-04-27 16:47 45.15998 17.52901 37140 ft 475 kts 146°
2026-04-27 16:48 45.10543 17.58206 37146 ft 476 kts 146°
2026-04-27 16:48 45.05087 17.63504 37151 ft 476 kts 146°
2026-04-27 16:49 44.96903 17.71449 37133 ft 475 kts 146°
2026-04-27 16:49 44.91447 17.76727 37139 ft 475 kts 146°
2026-04-27 16:50 44.85985 17.81993 37152 ft 476 kts 146°
2026-04-27 16:50 44.80514 17.87248 37144 ft 476 kts 146°
2026-04-27 16:51 44.75040 17.92491 37141 ft 476 kts 146°
2026-04-27 16:51 44.69557 17.97692 37132 ft 475 kts 146°
2026-04-27 16:52 44.64073 18.02869 37146 ft 475 kts 146°
2026-04-27 16:52 44.58583 18.08037 37137 ft 475 kts 146°
2026-04-27 16:53 44.53086 18.13207 37128 ft 476 kts 146°
2026-04-27 16:53 44.47588 18.18371 37124 ft 476 kts 146°
2026-04-27 16:54 44.42123 18.23494 37121 ft 476 kts 146°
2026-04-27 16:54 44.36621 18.28641 37129 ft 476 kts 146°
2026-04-27 16:55 44.31080 18.33817 37129 ft 476 kts 146°
2026-04-27 16:55 44.25571 18.38938 37110 ft 476 kts 146°
2026-04-27 16:56 44.20097 18.44012 37113 ft 476 kts 146°
2026-04-27 16:56 44.14586 18.49108 37111 ft 475 kts 146°
2026-04-27 16:57 44.09074 18.54195 37100 ft 475 kts 146°
2026-04-27 16:57 44.03570 18.59271 37083 ft 475 kts 146°
2026-04-27 16:58 43.98066 18.64340 37080 ft 475 kts 146°
2026-04-27 16:58 43.92557 18.69398 37083 ft 475 kts 146°
2026-04-27 16:59 43.87047 18.74443 37091 ft 475 kts 147°
2026-04-27 16:59 43.81530 18.79475 37093 ft 475 kts 147°
2026-04-27 17:00 43.73242 18.87019 37090 ft 475 kts 147°
2026-04-27 17:01 43.67718 18.92044 37091 ft 476 kts 147°
2026-04-27 17:01 43.62183 18.97065 37099 ft 475 kts 147°
2026-04-27 17:02 43.56651 19.02067 37092 ft 475 kts 147°
2026-04-27 17:02 43.51120 19.07063 37098 ft 475 kts 147°
2026-04-27 17:03 43.45590 19.12046 37098 ft 475 kts 147°
2026-04-27 17:03 43.40098 19.16979 37107 ft 474 kts 147°
2026-04-27 17:04 43.34567 19.21930 37090 ft 474 kts 147°
2026-04-27 17:04 43.29044 19.26872 37093 ft 474 kts 147°
2026-04-27 17:05 43.23511 19.31810 37097 ft 474 kts 148°
2026-04-27 17:05 43.18914 19.35902 37098 ft 474 kts 147°
2026-04-27 17:06 43.13380 19.40822 37098 ft 474 kts 148°
2026-04-27 17:06 43.07831 19.45726 37103 ft 474 kts 148°
2026-04-27 17:07 43.02290 19.50617 37110 ft 474 kts 148°
2026-04-27 17:07 42.96755 19.55515 37109 ft 474 kts 148°
2026-04-27 17:08 42.90942 19.59664 37103 ft 471 kts 158°
2026-04-27 17:08 42.84926 19.63229 37089 ft 471 kts 158°
2026-04-27 17:09 42.78905 19.66791 37098 ft 471 kts 158°
2026-04-27 17:09 42.72889 19.70349 37104 ft 472 kts 158°
2026-04-27 17:10 42.66873 19.73908 37098 ft 472 kts 158°
2026-04-27 17:10 42.60848 19.77465 37106 ft 472 kts 158°
2026-04-27 17:11 42.54829 19.81003 37120 ft 471 kts 158°
2026-04-27 17:11 42.45947 19.86728 37099 ft 473 kts 149°
2026-04-27 17:12 42.37594 19.93852 37110 ft 473 kts 149°
2026-04-27 17:13 42.32021 19.98571 37113 ft 472 kts 149°
2026-04-27 17:13 42.26449 20.03281 37110 ft 472 kts 149°
2026-04-27 17:14 42.20880 20.07983 37104 ft 472 kts 150°
2026-04-27 17:14 42.15322 20.12677 37102 ft 471 kts 150°
2026-04-27 17:15 42.09760 20.17366 37102 ft 471 kts 150°
2026-04-27 17:15 42.04193 20.22039 37108 ft 471 kts 150°
2026-04-27 17:16 41.98632 20.26687 37092 ft 471 kts 150°
2026-04-27 17:16 41.93052 20.31352 37093 ft 471 kts 150°
2026-04-27 17:17 41.87481 20.36004 37100 ft 471 kts 150°
2026-04-27 17:17 41.81908 20.40637 37098 ft 471 kts 150°
2026-04-27 17:18 41.73547 20.47577 37097 ft 471 kts 151°
2026-04-27 17:18 41.67967 20.52198 37096 ft 471 kts 150°
2026-04-27 17:19 41.62723 20.57507 37093 ft 473 kts 144°
2026-04-27 17:19 41.57595 20.62935 37101 ft 473 kts 144°
2026-04-27 17:20 41.52386 20.68424 37079 ft 474 kts 144°
2026-04-27 17:20 41.47216 20.73873 37088 ft 474 kts 144°
2026-04-27 17:21 41.42083 20.79274 37095 ft 473 kts 144°
2026-04-27 17:21 41.36906 20.84702 37104 ft 473 kts 144°
2026-04-27 17:22 41.31724 20.90110 37111 ft 473 kts 144°
2026-04-27 17:22 41.26537 20.95508 37097 ft 473 kts 144°
2026-04-27 17:23 41.21345 21.00904 37102 ft 473 kts 144°
2026-04-27 17:23 41.16158 21.06290 37102 ft 473 kts 144°
2026-04-27 17:24 41.10969 21.11673 37105 ft 473 kts 144°
2026-04-27 17:24 41.05739 21.16943 37114 ft 473 kts 147°
2026-04-27 17:25 41.00267 21.21770 37097 ft 471 kts 150°
2026-04-27 17:25 40.94721 21.26426 37105 ft 472 kts 150°
2026-04-27 17:26 40.89219 21.31160 37104 ft 472 kts 149°
2026-04-27 17:26 40.83742 21.35972 37111 ft 473 kts 149°
2026-04-27 17:27 40.78271 21.40780 37124 ft 472 kts 149°
2026-04-27 17:27 40.72784 21.45556 37129 ft 472 kts 149°
2026-04-27 17:28 40.67290 21.50314 37135 ft 472 kts 149°
2026-04-27 17:29 40.59058 21.57441 37139 ft 472 kts 149°
2026-04-27 17:29 40.53569 21.62187 37129 ft 472 kts 149°
2026-04-27 17:30 40.48076 21.66928 37131 ft 472 kts 149°
2026-04-27 17:30 40.39826 21.74019 37141 ft 473 kts 149°
2026-04-27 17:31 40.34320 21.78746 37149 ft 473 kts 149°
2026-04-27 17:31 40.28807 21.83469 37127 ft 473 kts 149°
2026-04-27 17:32 40.20538 21.90529 37140 ft 473 kts 149°
2026-04-27 17:33 40.15028 21.95234 37145 ft 473 kts 149°
2026-04-27 17:33 40.09519 21.99927 37148 ft 473 kts 149°
2026-04-27 17:34 40.04041 22.04570 37138 ft 472 kts 149°
2026-04-27 17:34 39.98525 22.09241 37152 ft 473 kts 149°
2026-04-27 17:35 39.93006 22.13900 37157 ft 473 kts 149°
2026-04-27 17:35 39.87488 22.18557 37164 ft 472 kts 149°
2026-04-27 17:36 39.81975 22.23210 37168 ft 472 kts 149°
2026-04-27 17:36 39.76462 22.27843 37159 ft 472 kts 149°
2026-04-27 17:37 39.70953 22.32464 37155 ft 471 kts 149°
2026-04-27 17:37 39.65445 22.37077 37155 ft 471 kts 150°
2026-04-27 17:38 39.59929 22.41683 37152 ft 471 kts 150°
2026-04-27 17:38 39.54415 22.46284 37158 ft 471 kts 150°
2026-04-27 17:39 39.48905 22.50881 37156 ft 471 kts 150°
2026-04-27 17:39 39.43392 22.55461 37164 ft 471 kts 150°
2026-04-27 17:40 39.37879 22.60022 37168 ft 471 kts 150°
2026-04-27 17:40 39.32364 22.64591 37157 ft 471 kts 150°
2026-04-27 17:41 39.26886 22.69127 37141 ft 471 kts 150°
2026-04-27 17:41 39.21369 22.73677 37151 ft 470 kts 150°
2026-04-27 17:42 39.15856 22.78213 37153 ft 470 kts 150°
2026-04-27 17:42 39.10341 22.82744 37161 ft 470 kts 150°
2026-04-27 17:43 39.04830 22.87256 37169 ft 469 kts 150°
2026-04-27 17:43 38.99327 22.91760 37159 ft 469 kts 150°
2026-04-27 17:44 38.93826 22.96260 37174 ft 468 kts 150°
2026-04-27 17:44 38.88327 23.00746 37184 ft 468 kts 150°
2026-04-27 17:45 38.82823 23.05215 37185 ft 468 kts 150°
2026-04-27 17:45 38.77323 23.09684 37167 ft 468 kts 150°
2026-04-27 17:46 38.71827 23.14141 37164 ft 467 kts 150°
2026-04-27 17:46 38.66330 23.18592 37176 ft 467 kts 150°
2026-04-27 17:47 38.60850 23.23027 37169 ft 467 kts 150°
2026-04-27 17:47 38.55349 23.27464 37168 ft 466 kts 150°
2026-04-27 17:48 38.50789 23.31136 37142 ft 466 kts 150°
2026-04-27 17:48 38.45302 23.35547 37160 ft 466 kts 150°
2026-04-27 17:49 38.39815 23.39951 37156 ft 466 kts 150°
2026-04-27 17:49 38.34326 23.44347 37138 ft 466 kts 150°
2026-04-27 17:50 38.28839 23.48737 37115 ft 466 kts 150°
2026-04-27 17:50 38.20604 23.55304 37100 ft 466 kts 150°
2026-04-27 17:51 38.15117 23.59674 37088 ft 465 kts 150°
2026-04-27 17:51 38.09627 23.64037 37087 ft 465 kts 150°
2026-04-27 17:52 38.04135 23.68387 37080 ft 465 kts 150°
2026-04-27 17:52 37.98643 23.72737 37087 ft 465 kts 150°
2026-04-27 17:53 37.93144 23.77072 37126 ft 466 kts 150°
2026-04-27 17:53 37.87588 23.81267 37127 ft 464 kts 156°
2026-04-27 17:54 37.81823 23.84935 37131 ft 464 kts 156°
2026-04-27 17:54 37.76054 23.88606 37128 ft 464 kts 155°
2026-04-27 17:55 37.70330 23.92395 37118 ft 465 kts 154°
2026-04-27 17:55 37.64638 23.96274 37109 ft 465 kts 154°
2026-04-27 17:56 37.58937 24.00139 37104 ft 465 kts 154°
2026-04-27 17:56 37.53225 24.03970 37107 ft 465 kts 154°
2026-04-27 17:57 37.47500 24.07788 37092 ft 465 kts 155°
2026-04-27 17:57 37.41772 24.11603 37095 ft 466 kts 155°
2026-04-27 17:58 37.36042 24.15425 37094 ft 466 kts 155°
2026-04-27 17:58 37.30314 24.19242 37097 ft 466 kts 155°
2026-04-27 17:59 37.24576 24.23047 37099 ft 467 kts 155°
2026-04-27 17:59 37.18830 24.26854 37085 ft 467 kts 155°
2026-04-27 18:00 37.13072 24.30664 37088 ft 468 kts 155°
2026-04-27 18:00 37.07300 24.34467 37091 ft 469 kts 155°
2026-04-27 18:01 37.01530 24.38271 36888 ft 469 kts 155°
2026-04-27 18:01 36.98642 24.40173 36619 ft 469 kts 155°
2026-04-27 18:01 36.95759 24.42074 36343 ft 470 kts 155°
2026-04-27 18:02 36.92852 24.43988 35708 ft 472 kts 155°
2026-04-27 18:02 36.89972 24.45885 35068 ft 465 kts 155°
2026-04-27 18:02 36.87130 24.47754 34444 ft 458 kts 155°
2026-04-27 18:02 36.84361 24.49570 33793 ft 452 kts 155°
2026-04-27 18:03 36.81557 24.51403 33087 ft 447 kts 154°
2026-04-27 18:03 36.78858 24.53166 32412 ft 441 kts 154°
2026-04-27 18:03 36.76154 24.54933 31736 ft 436 kts 154°
2026-04-27 18:03 36.73485 24.56678 31097 ft 431 kts 154°
2026-04-27 18:04 36.70848 24.58404 30454 ft 426 kts 154°
2026-04-27 18:04 36.68235 24.60112 29774 ft 421 kts 154°
2026-04-27 18:04 36.65653 24.61793 29046 ft 417 kts 154°
2026-04-27 18:04 36.63095 24.63456 28343 ft 412 kts 154°
2026-04-27 18:05 36.60572 24.65094 27653 ft 408 kts 154°
2026-04-27 18:05 36.58069 24.66720 26978 ft 403 kts 154°
2026-04-27 18:05 36.55594 24.68327 26325 ft 399 kts 154°
2026-04-27 18:05 36.53147 24.69915 25684 ft 395 kts 154°
2026-04-27 18:06 36.50726 24.71490 25061 ft 391 kts 154°
2026-04-27 18:06 36.48329 24.73049 24455 ft 387 kts 154°
2026-04-27 18:06 36.45954 24.74590 23844 ft 383 kts 154°
2026-04-27 18:06 36.43599 24.76113 23133 ft 380 kts 154°
2026-04-27 18:07 36.41255 24.77626 22401 ft 378 kts 154°
2026-04-27 18:07 36.38928 24.79129 21703 ft 376 kts 154°
2026-04-27 18:07 36.36611 24.80628 21008 ft 373 kts 154°
2026-04-27 18:07 36.34330 24.82105 20338 ft 369 kts 154°
2026-04-27 18:08 36.32038 24.83587 19678 ft 374 kts 154°
2026-04-27 18:08 36.29721 24.85083 19029 ft 378 kts 154°
2026-04-27 18:08 36.27378 24.86597 18392 ft 381 kts 153°
2026-04-27 18:08 36.25018 24.88119 17672 ft 384 kts 153°
2026-04-27 18:09 36.22644 24.89646 16972 ft 386 kts 153°
2026-04-27 18:09 36.20257 24.91181 16281 ft 387 kts 153°
2026-04-27 18:09 36.17896 24.92702 15597 ft 376 kts 153°
2026-04-27 18:09 36.15610 24.94175 14937 ft 365 kts 153°
2026-04-27 18:10 36.13389 24.95606 14294 ft 355 kts 153°
2026-04-27 18:10 36.11224 24.96994 13632 ft 346 kts 153°
2026-04-27 18:10 36.09109 24.98345 12929 ft 339 kts 153°
2026-04-27 18:10 36.07037 24.99672 12272 ft 332 kts 153°
2026-04-27 18:11 36.05013 25.00970 11678 ft 324 kts 153°
2026-04-27 18:11 36.03031 25.02237 11089 ft 317 kts 153°
2026-04-27 18:11 36.01092 25.03475 10508 ft 311 kts 152°
2026-04-27 18:11 35.99186 25.04692 9942 ft 305 kts 152°
2026-04-27 18:12 35.97315 25.05888 9309 ft 300 kts 152°
2026-04-27 18:12 35.95478 25.07063 8700 ft 295 kts 152°
2026-04-27 18:12 35.93676 25.08212 8093 ft 290 kts 152°
2026-04-27 18:12 35.91893 25.09348 7500 ft 286 kts 152°
2026-04-27 18:13 35.90126 25.10473 6914 ft 285 kts 152°
2026-04-27 18:13 35.88366 25.11595 6334 ft 287 kts 152°
2026-04-27 18:13 35.86582 25.12730 5813 ft 289 kts 152°
2026-04-27 18:13 35.84806 25.13860 5435 ft 285 kts 152°
2026-04-27 18:14 35.83052 25.14978 5079 ft 281 kts 151°
2026-04-27 18:14 35.81357 25.16057 5005 ft 266 kts 151°
2026-04-27 18:14 35.79741 25.17082 5009 ft 259 kts 151°
2026-04-27 18:14 35.78174 25.18078 5009 ft 258 kts 151°
2026-04-27 18:15 35.76568 25.19100 5008 ft 258 kts 151°
2026-04-27 18:15 35.74974 25.20114 5000 ft 258 kts 151°
2026-04-27 18:15 35.73390 25.21122 4817 ft 253 kts 151°
2026-04-27 18:15 35.71844 25.22107 4570 ft 247 kts 151°
2026-04-27 18:16 35.70325 25.23074 4318 ft 245 kts 152°
2026-04-27 18:16 35.68816 25.24029 4068 ft 243 kts 152°
2026-04-27 18:16 35.67315 25.24976 3818 ft 242 kts 152°
2026-04-27 18:16 35.65817 25.25921 3570 ft 241 kts 152°
2026-04-27 18:17 35.64328 25.26865 3329 ft 241 kts 152°
2026-04-27 18:17 35.62842 25.27807 3095 ft 239 kts 152°
2026-04-27 18:17 35.61362 25.28742 3003 ft 239 kts 152°
2026-04-27 18:17 35.59883 25.29673 3010 ft 239 kts 152°
2026-04-27 18:18 35.58403 25.30608 3007 ft 239 kts 152°
2026-04-27 18:18 35.56925 25.31541 3009 ft 239 kts 152°
2026-04-27 18:18 35.55443 25.32477 3009 ft 239 kts 152°
2026-04-27 18:18 35.53962 25.33412 3012 ft 240 kts 152°
2026-04-27 18:19 35.52477 25.34349 3010 ft 240 kts 152°
2026-04-27 18:19 35.50995 25.35284 3010 ft 240 kts 152°
2026-04-27 18:19 35.49547 25.36199 3010 ft 227 kts 152°
2026-04-27 18:19 35.48183 25.37057 3007 ft 214 kts 152°
2026-04-27 18:20 35.46884 25.37877 3010 ft 208 kts 152°
2026-04-27 18:20 35.45605 25.38685 3011 ft 206 kts 152°
2026-04-27 18:20 35.44339 25.39494 3008 ft 205 kts 150°
2026-04-27 18:20 35.43095 25.40338 3009 ft 204 kts 150°
2026-04-27 18:21 35.41855 25.41195 3010 ft 206 kts 149°
2026-04-27 18:21 35.40605 25.42062 3010 ft 207 kts 149°
2026-04-27 18:21 35.39368 25.42917 3010 ft 207 kts 150°
2026-04-27 18:21 35.38073 25.43732 3005 ft 206 kts 164°
2026-04-27 18:22 35.36689 25.43761 3022 ft 194 kts 199°
2026-04-27 18:22 35.35594 25.42943 3022 ft 182 kts 231°
2026-04-27 18:22 35.34974 25.41650 3024 ft 174 kts 248°
2026-04-27 18:22 35.34470 25.40327 3027 ft 168 kts 248°
2026-04-27 18:23 35.33975 25.39044 2977 ft 166 kts 248°
2026-04-27 18:23 35.33476 25.37749 2650 ft 168 kts 247°
2026-04-27 18:23 35.33002 25.36462 2361 ft 161 kts 254°
2026-04-27 18:23 35.32806 25.35167 2304 ft 152 kts 271°
2026-04-27 18:24 35.32872 25.33889 2312 ft 150 kts 277°
2026-04-27 18:24 35.32961 25.32621 2310 ft 149 kts 277°
2026-04-27 18:24 35.33050 25.31354 2305 ft 149 kts 277°
2026-04-27 18:24 35.33138 25.30095 2080 ft 149 kts 277°
2026-04-27 18:25 35.33226 25.28834 1872 ft 149 kts 277°
2026-04-27 18:25 35.33313 25.27578 1643 ft 147 kts 277°
2026-04-27 18:25 35.33400 25.26324 1423 ft 147 kts 276°
2026-04-27 18:25 35.33486 25.25079 1201 ft 147 kts 275°
2026-04-27 18:26 35.33571 25.23839 987 ft 145 kts 275°
2026-04-27 18:26 35.33655 25.22602 736 ft 145 kts 275°
2026-04-27 18:26 35.33732 25.21384 489 ft 143 kts 277°
2026-04-27 18:26 35.33823 25.20172 332 ft 143 kts 276°
2026-04-27 18:27 35.33909 25.18963 142 ft 142 kts 276°
2026-04-27 18:27 35.33987 25.17926 100 ft 85 kts 274°
2026-04-27 18:27 35.34021 25.17434 88 ft 44 kts 274°
2026-04-27 18:27 35.34022 25.17193 84 ft 15 kts 252°
2026-04-27 18:28 35.33989 25.17095 81 ft 5 kts 247°
2026-04-27 18:28 35.33985 25.17084 69 ft 0 kts 246°
2026-04-27 18:28 35.33982 25.17077 70 ft 2 kts 239°
2026-04-27 18:28 35.33970 25.17069 70 ft 3 kts 212°
2026-04-27 18:29 35.33949 25.17057 69 ft 3 kts 189°
2026-04-27 18:29 35.33939 25.17097 76 ft 10 kts 93°
2026-04-27 18:29 35.33932 25.17222 81 ft 20 kts 96°
2026-04-27 18:29 35.33918 25.17425 86 ft 27 kts 95°
2026-04-27 18:30 35.33876 25.17548 90 ft 15 kts 174°
2026-04-27 18:30 35.33784 25.17501 88 ft 18 kts 226°
2026-04-27 18:30 35.33767 25.17428 87 ft 9 kts 271°
2026-04-27 18:30 35.33767 25.17416 88 ft 0 kts 274°